Regional Weather Roundup
Issued by NWS Bismarck, ND

Home | Current Version | Previous Version | Text Only | Print | Product List | Glossary On
Versions: 1 2 3 4 5 6 7 8 9 10 11 12 13 14 15 16 17 18 19 20 21 22 23 24 25 26 27 28 29 30 31 32 33 34 35 36 37 38 39 40 41 42 43 44 45 46 47 48 49 50
000
ASUS43 KBIS 190220
RWRBIS

NWR BROADCAST TEXT
NATIONAL WEATHER SERVICE BISMARCK ND
900 PM CDT THU SEP 18 2014

NOTE: "FAIR" INDICATES FEW OR NO CLOUDS BELOW 12,000 FEET WITH NO
SIGNIFICANT WEATHER AND/OR OBSTRUCTIONS TO VISIBILITY.


CITY           SKY/WX    TMP DP  RH WIND       PRES   REMARKS
WILLISTON      CLOUDY    70  53  54 S6        29.59S
MINOT          CLOUDY    75  61  61 S17       29.56F
MINOT AFB      CLOUDY    74  62  68 SW12      29.55F
BISMARCK       CLOUDY    71  63  75 E12       29.65F
DICKINSON      CLOUDY    69  60  73 S13       29.67S
GARRISON         N/A     71  64  78 S9        29.60F
HETTINGER ARPT CLOUDY    71  62  73 SE10      29.71S
JAMESTOWN      MOCLDY    68  60  75 S14       29.72F
BEACH            N/A     64  54  68 S9        29.68F
CARRINGTON     FAIR      68  63  83 S15G21    29.70R
CROSBY         FAIR      64  55  72 SW9       29.57R
HARVEY         FAIR      73  61  64 S14G21    29.65S
HAZEN          MOCLDY    72  64  78 S17       29.63S
LINTON         FAIR      70  63  78 S14G21    29.72S
MANDAN         FAIR      72  63  73 S10       29.69F
OAKES            N/A     64  61  88 S10       29.78R
RUGBY          FAIR      72  63  73 S13G18    29.61S
STANLEY        FAIR      68  54  60 SW9       29.60S
TIOGA          FAIR      72  50  46 SW12      29.62S
WATFORD CITY   FAIR      64  50  59 S8        29.59F
$$

CITY           SKY/WX    TMP DP  RH WIND       PRES   REMARKS
GRAND FORKS    CLOUDY    68  60  75 S13       29.71S
GRAND FORKS AF MOCLDY    68  63  82 S16       29.71S
DEVILS LAKE    CLOUDY    70  57  64 S13G18    29.65R
FARGO          MOCLDY    71  56  58 S15G25    29.77R
CANDO          FAIR      66  59  77 S12       29.64S
CAVALIER       FAIR      66  59  77 S16G26    29.64F
GRAFTON        FAIR      66  59  77 S17       29.67F
GWINNER        CLEAR     68  57  68 S12       29.80S
LANGDON        FAIR      64  57  77 S20G25    29.64F
ROLLA          FAIR      68  59  73 S16G23    29.62F
WALHALLA         N/A     66  61  82 S15G24    29.62F
$$

CITY           SKY/WX    TMP DP  RH WIND       PRES   REMARKS
ABERDEEN       MOCLDY    69  57  65 S16G24    29.78S
MOBRIDGE       MOCLDY    70  61  73 SE12      29.70R
BUFFALO          N/A     73  59  61 SE9       29.67F
RAPID CITY     CLOUDY    74  53  48 SE6       29.72S
GLASGOW        MOCLDY    67  53  61 SE7       29.59S
SIDNEY         CLOUDY    66  55  68 CALM      29.62R
WOLF POINT     CLOUDY    65  55  70 NE5       29.59F
GLENDIVE       CLOUDY    70  55  60 SW8       29.67R
MILES CITY     CLOUDY    71  53  52 SW5       29.70R
BAKER          CLOUDY    67  51  56 S8        29.71F
$$

CITY           SKY/WX    TMP DP  RH WIND       PRES   REMARKS
BILLINGS       CLOUDY    64  55  72 SW15      29.79F
GREAT FALLS    CLEAR     66  47  50 SW12      29.71R
REGINA         MOCLDY    68  55  64 W8        29.49S
ESTEVAN        MOCLDY    63  54  72 SW6       29.55R
$$




USA.gov is the U.S. government's official web portal to all federal, state and local government web resources and services.